DW1774 Weather Reports


time (UTC)temp
F
wind
direction
speed
knots
gust
knots
rain 1hr
in
rain 24hr
in
rain mn
in
humidity
%
barometer
mb
20260904213905 94 0 0.0 0.0 9.99 9.01 9.15 64 1011.8
20260904213404 95 0 0.0 0.0 9.99 8.74 8.88 62 1011.9
20260904212904 96 0 0.0 0.0 9.99 8.47 8.61 61 1012.0
20260904212404 96 0 0.0 0.0 9.99 8.23 8.37 62 1012.1
20260904211904 97 0 0.0 0.0 9.99 7.93 8.07 59 1012.0
20260904211405 97 0 0.0 0.0 9.99 7.69 7.83 58 1011.9
20260904210904 97 0 0.0 0.0 9.99 7.39 7.53 59 1012.0
20260904210404 98 0 0.0 0.0 9.99 7.15 7.29 60 1012.1
20260904205404 97 0 0.0 0.0 9.99 6.78 6.91 59 1012.3
20260904204405 96 0 0.0 0.0 9.99 6.16 6.30 61 1012.3
20260904203905 95 0 0.0 0.0 9.99 5.86 6.00 63 1012.3
20260904203405 95 0 0.0 0.0 9.99 5.59 5.73 64 1012.4
20260904202904 94 0 0.0 0.0 9.99 5.31 5.44 66 1012.5
20260904202404 93 0 0.0 0.0 9.99 5.04 5.17 65 1012.6
20260904201904 92 0 0.0 0.0 9.99 4.71 4.84 70 1012.7
20260904201404 91 0 0.0 0.0 9.99 4.42 4.56 73 1012.8
20260904200905 90 0 0.0 0.0 9.99 4.15 4.29 78 1012.9
20260904200404 88 0 0.0 0.0 9.99 3.82 3.96 80 1012.9
20260904195403 85 0 0.0 0.0 9.99 3.30 3.43 88 1012.9
20260904194403 83 0 0.0 0.0 9.99 2.97 3.01 90 1013.2
20260904193403 82 182 0.0 7.8 9.99 2.92 2.92 88 1013.1
20260904192904 82 183 1.7 10.4 9.99 2.73 2.73 88 1013.2
20260904192405 82 176 3.5 10.4 9.99 2.38 2.38 88 1013.4
20260904191904 83 155 1.7 7.0 9.99 2.02 2.02 87 1013.4
20260904191404 83 145 3.5 7.0 9.99 1.87 1.87 88 1013.4
20260904190904 83 266 0.0 0.9 9.99 1.66 1.66 88 1013.6
20260904190404 83 266 0.0 1.7 9.99 1.44 1.44 87 1013.5
20260904185905 83 266 0.9 1.7 9.99 1.20 1.20 86 1013.4
20260904185404 83 266 0.0 2.6 9.19 9.19 9.19 86 1013.5
20260904184904 84 266 0.0 2.6 7.12 7.12 7.12 86 1013.6
20260904183904 84 265 1.7 7.0 3.68 3.68 3.68 82 1013.7
20260904183404 85 266 2.6 7.0 1.94 1.94 1.94 82 1013.8
20260904182404 87 339 1.7 6.1 0.00 0.00 0.00 74 1014.1
20260904181904 88 346 4.3 6.1 0.00 0.00 0.00 74 1014.1
20260904181404 89 331 1.7 7.0 0.00 0.00 0.00 75 1014.2
20260904180904 89 352 4.3 7.0 0.00 0.00 0.00 74 1014.3
20260904175405 90 321 0.0 0.0 0.00 0.00 0.00 71 1014.2
20260904174904 91 321 0.0 0.0 0.00 0.00 0.00 71 1014.3
20260904174404 91 321 0.0 0.0 0.00 0.00 0.00 70 1014.3
20260904173904 91 321 0.0 1.7 0.00 0.00 0.00 69 1014.3
20260904172404 92 30 1.7 7.0 0.00 0.00 0.00 68 1014.3
20260904171905 93 7 3.5 7.0 0.00 0.00 0.00 67 1014.3
20260904170904 93 342 4.3 7.8 0.00 0.00 0.00 68 1014.4
20260904170404 92 331 1.7 8.7 0.00 0.00 0.00 67 1014.4
20260904165404 92 358 4.3 7.8 0.00 0.00 0.00 69 1014.6
20260904164904 93 357 4.3 7.8 0.00 0.00 0.00 64 1014.6
20260904163403 94 244 1.7 4.3 0.00 0.00 0.00 66 1014.7
20260904162904 95 51 2.6 4.3 0.00 0.00 0.00 66 1014.7
20260904162404 94 16 2.6 5.2 0.00 0.00 0.00 70 1014.8
20260904161903 94 128 2.6 5.2 0.00 0.00 0.00 70 1014.7
20260904161404 93 61 2.6 5.2 0.00 0.00 0.00 71 1014.6
20260904160405 92 57 1.7 7.8 0.00 0.00 0.00 72 1014.4
20260904155904 92 165 2.6 7.8 0.00 0.00 0.00 73 1014.4
20260904155405 91 92 1.7 8.7 0.00 0.00 0.00 77 1014.5
20260904154904 89 96 6.1 8.7 0.00 0.00 0.00 78 1014.5
20260904154404 88 129 8.7 8.7 0.00 0.00 0.00 80 1014.5
20260904153904 87 153 7.8 8.7 0.00 0.00 0.00 80 1014.5
20260904153405 86 136 1.7 5.2 0.00 0.00 0.00 82 1014.5
20260904152905 86 88 2.6 5.2 0.00 0.00 0.00 83 1014.6
20260904152404 85 119 1.7 5.2 0.00 0.00 0.00 84 1014.6
20260904151904 85 84 0.9 4.3 0.00 0.00 0.00 85 1014.4
20260904151403 85 84 0.9 4.3 0.00 0.00 0.00 85 1014.0
20260904150904 85 130 1.7 5.2 0.00 0.00 0.00 85 1014.0
20260904145904 84 102 1.7 7.0 0.00 0.00 0.00 85 1013.9
20260904145404 84 104 7.0 7.0 0.00 0.00 0.00 86 1014.0
20260904144405 84 137 2.6 5.2 0.00 0.00 0.00 87 1014.1
20260904143904 84 121 0.9 2.6 0.00 0.00 0.00 88 1014.0
20260904143404 84 182 0.0 0.0 0.00 0.00 0.00 89 1013.9
20260904142904 84 182 0.0 0.0 0.00 0.00 0.00 90 1013.9
20260904142404 83 182 0.0 0.0 0.00 0.00 0.00 91 1013.9
20260904141904 83 182 0.0 0.0 0.00 0.00 0.00 92 1013.9
20260904141404 83 182 0.0 0.0 0.00 0.00 0.00 93 1013.9
20260904140904 82 182 0.0 0.0 0.00 0.00 0.00 93 1013.8
20260904140405 82 182 0.0 0.0 0.00 0.00 0.00 93 1013.8
20260904135403 81 182 0.9 1.7 0.00 0.00 0.00 93 1013.7
20260904134403 81 182 0.0 0.0 0.00 0.00 0.00 93 1013.6
20260904133904 81 182 0.0 0.0 0.00 0.00 0.00 93 1013.6
20260904133405 81 182 0.0 0.0 0.00 0.00 0.00 93 1013.6
20260904131904 80 182 0.0 0.0 0.00 0.00 0.00 93 1013.5
20260904131403 80 182 0.0 0.0 0.00 0.00 0.00 93 1013.4
20260904125404 80 182 0.0 0.0 0.00 0.00 0.00 92 1013.4
20260904124904 79 182 0.0 0.0 0.00 0.00 0.00 92 1013.4
20260904124404 80 182 0.0 0.0 0.00 0.00 0.00 91 1013.3
20260904123904 80 182 0.0 0.0 0.00 0.00 0.00 91 1013.2
20260904123405 80 182 0.0 0.0 0.00 0.00 0.00 91 1013.1
20260904122903 80 182 0.0 0.9 0.00 0.00 0.00 91 1013.0
20260904122404 80 182 0.0 0.9 0.00 0.00 0.00 91 1012.9
20260904121903 80 182 0.0 0.0 0.00 0.00 0.00 91 1012.8
20260904121404 80 182 0.0 0.0 0.00 0.00 0.00 91 1012.7
20260904120905 80 182 0.0 0.0 0.00 0.00 0.00 91 1012.7
20260904120404 80 182 0.0 0.0 0.00 0.00 0.00 91 1012.7
20260904115904 80 182 0.0 0.0 0.00 0.00 0.00 91 1012.7
20260904115404 80 182 0.0 0.0 0.00 0.00 0.00 90 1012.6
20260904114904 80 182 0.0 0.0 0.00 0.00 0.00 90 1012.5
20260904114404 80 182 0.0 0.0 0.00 0.00 0.00 90 1012.6
20260904113404 80 182 0.0 0.0 0.00 0.00 0.00 90 1012.7
20260904112904 80 182 0.0 0.0 0.00 0.00 0.00 90 1012.5
20260904112403 80 182 0.0 0.0 0.00 0.00 0.00 90 1012.5
20260904111904 80 182 0.0 0.0 0.00 0.00 0.00 90 1012.5
20260904111403 80 182 0.0 0.0 0.00 0.00 0.00 90 1012.6
20260904110904 80 182 0.0 0.0 0.00 0.00 0.00 90 1012.5
20260904110404 80 182 0.0 0.0 0.00 0.00 0.00 90 1012.5
20260904105904 81 182 0.0 0.0 0.00 0.00 0.00 90 1012.5
20260904105404 81 182 0.0 0.0 0.00 0.00 0.00 90 1012.6
20260904104904 81 182 0.0 0.0 0.00 0.00 0.00 90 1012.6
20260904104404 81 182 0.0 0.0 0.00 0.00 0.00 90 1012.7
20260904103404 81 182 0.0 0.0 0.00 0.00 0.00 90 1012.4
20260904102904 81 182 0.0 0.0 0.00 0.00 0.00 89 1012.4
20260904102404 81 182 0.0 0.0 0.00 0.00 0.00 89 1012.3
20260904101904 81 182 0.0 0.0 0.00 0.00 0.00 89 1012.2
20260904101404 81 182 0.0 0.0 0.00 0.00 0.00 89 1012.2
20260904100904 81 182 0.0 0.0 0.00 0.00 0.00 89 1012.2
20260904100405 81 182 0.0 0.0 0.00 0.00 0.00 88 1012.1
20260904095904 81 182 0.0 0.0 0.00 0.00 0.00 88 1012.1
20260904095404 81 182 0.0 0.0 0.00 0.00 0.00 88 1012.1
20260904094904 81 182 0.0 0.0 0.00 0.00 0.00 88 1012.1
20260904094404 81 182 0.0 0.0 0.00 0.00 0.00 88 1012.1
20260904093904 81 182 0.0 0.0 0.00 0.00 0.00 88 1012.1
20260904092404 82 182 0.0 0.0 0.00 0.00 0.00 88 1012.0
20260904091904 82 182 0.0 0.0 0.00 0.00 0.00 88 1012.0
20260904090905 82 182 0.0 0.0 0.00 0.00 0.00 88 1012.0
20260904090403 82 182 0.0 0.0 0.00 0.00 0.00 87 1011.9
20260904085904 82 182 0.0 0.0 0.00 0.00 0.00 88 1011.9
20260904085405 82 182 0.0 0.0 0.00 0.00 0.00 88 1011.9
20260904084904 82 182 0.0 0.0 0.00 0.00 0.00 87 1011.8
20260904084404 82 182 0.0 0.0 0.00 0.00 0.00 87 1011.9
20260904083904 82 182 0.0 0.0 0.00 0.00 0.00 87 1011.9
20260904082903 82 182 0.0 0.0 0.00 0.00 0.00 87 1011.9
20260904082404 82 182 0.0 0.0 0.00 0.00 0.00 87 1011.9
20260904081904 82 182 0.0 0.0 0.00 0.00 0.00 87 1011.9
20260904081404 82 182 0.0 0.0 0.00 0.00 0.00 87 1012.0
20260904080904 82 182 0.0 1.7 0.00 0.00 0.00 87 1012.0
20260904080404 82 182 0.9 1.7 0.00 0.00 0.00 87 1011.9
20260904075904 82 181 0.0 0.0 0.00 0.00 0.00 87 1012.0
20260904075404 82 181 0.0 2.6 0.00 0.00 0.00 86 1011.9
20260904074404 82 181 0.0 0.9 0.00 0.00 0.00 86 1012.0
20260904073904 82 180 0.0 0.0 0.00 0.00 0.00 86 1012.0
20260904073404 82 180 0.0 0.0 0.00 0.00 0.00 86 1012.0
20260904072904 82 180 0.0 1.7 0.00 0.00 0.00 86 1012.0
20260904072404 82 180 0.0 1.7 0.00 0.00 0.00 86 1012.0
20260904071403 83 180 0.9 2.6 0.00 0.00 0.00 86 1012.0
20260904070904 83 180 0.9 2.6 0.00 0.00 0.00 86 1012.0
20260904065904 83 213 0.0 0.0 0.00 0.00 0.00 86 1012.2
20260904064904 83 213 0.0 2.6 0.00 0.00 0.00 86 1012.2
20260904064404 83 216 0.9 2.6 0.00 0.00 0.00 86 1012.2
20260904063904 83 218 0.9 2.6 0.00 0.00 0.00 86 1012.1
20260904063404 83 221 1.7 2.6 0.00 0.00 0.00 86 1012.2
20260904062904 83 190 0.0 1.7 0.00 0.00 0.00 86 1012.2
20260904062403 83 190 0.9 1.7 0.00 0.00 0.00 86 1012.2
20260904061903 83 190 0.9 1.7 0.00 0.00 0.00 86 1012.2
20260904061404 83 189 0.0 2.6 0.00 0.00 0.00 86 1012.2
20260904060903 83 189 0.0 4.3 0.00 0.00 0.00 86 1012.1
20260904060404 83 190 0.9 4.3 0.00 0.00 0.00 86 1012.2
20260904055904 83 190 0.9 4.3 0.00 0.00 0.00 86 1012.1
20260904055404 83 160 1.7 1.7 0.00 0.00 0.00 86 1012.2
20260904053904 83 171 0.9 4.3 0.00 0.00 0.00 87 1012.2
20260904053403 83 170 0.9 4.3 0.00 0.00 0.00 87 1012.1
20260904052903 83 169 1.7 4.3 0.00 0.00 0.00 87 1012.2
20260904052404 83 171 0.9 4.3 0.00 0.00 0.00 87 1012.2
20260904051904 83 170 0.9 4.3 0.00 0.00 0.00 87 1012.3
20260904045905 83 144 0.0 1.7 0.00 0.00 0.00 87 1012.4
20260904044904 83 144 0.9 1.7 0.00 0.00 0.00 87 1012.3
20260904044405 83 144 0.9 1.7 0.00 0.00 0.00 87 1012.3
20260904043904 83 144 0.0 1.7 0.00 0.00 0.00 86 1012.3
20260904043404 83 144 0.0 2.6 0.00 0.00 0.00 86 1012.4
20260904042904 83 144 0.9 2.6 0.00 0.00 0.00 86 1012.4
20260904042404 83 136 0.9 2.6 0.00 0.00 0.00 86 1012.4
20260904041905 83 148 0.9 4.3 0.00 0.00 0.00 86 1012.4
20260904041404 83 158 0.9 4.3 0.00 0.00 0.00 86 1012.4
20260904040904 83 116 1.7 4.3 0.00 0.00 0.00 86 1012.4
20260904040403 83 126 2.6 4.3 0.00 0.00 0.00 85 1012.4
20260904035404 83 134 1.7 7.0 0.00 0.00 0.00 85 1012.3
20260904034904 83 134 2.6 7.0 0.00 0.00 0.00 85 1012.3
20260904034404 83 137 0.9 7.0 0.00 0.00 0.00 85 1012.4
20260904033904 83 163 1.7 4.3 0.00 0.00 0.00 84 1012.5
20260904032904 83 165 0.9 4.3 0.00 0.00 0.00 84 1012.5
20260904031903 83 161 0.9 6.1 0.00 0.00 0.00 84 1012.5
20260904031405 83 166 2.6 6.1 0.00 0.00 0.00 84 1012.5
20260904030904 83 160 0.9 2.6 0.00 0.00 0.00 84 1012.5
20260904030404 83 138 0.0 4.3 0.00 0.00 0.00 84 1012.5
20260904025903 83 138 1.7 5.2 0.00 0.00 0.00 84 1012.5
20260904025404 84 137 2.6 5.2 0.00 0.00 0.00 84 1012.4
20260904024904 84 163 2.6 4.3 0.00 0.00 0.00 83 1012.4
20260904024404 84 160 0.9 1.7 0.00 0.00 0.00 84 1012.5
20260904022904 84 160 0.9 4.3 0.00 0.00 0.00 84 1012.3
20260904022403 84 129 0.9 4.3 0.00 0.00 0.00 84 1012.3
20260904021903 84 127 1.7 4.3 0.00 0.00 0.00 84 1012.1
20260904021405 84 134 0.0 6.1 0.00 0.00 0.00 84 1012.0
20260904020904 84 121 1.7 6.1 0.00 0.00 0.00 84 1012.0
20260904020403 84 125 1.7 4.3 0.00 0.00 0.00 84 1012.0
20260904015904 84 118 1.7 5.2 0.00 0.00 0.00 84 1012.0
20260904015405 84 94 2.6 5.2 0.00 0.00 0.00 84 1012.0
20260904014903 84 133 1.7 7.8 0.00 0.00 0.00 84 1011.9
20260904014405 84 83 1.7 7.8 0.00 0.00 0.00 84 1011.8
20260904013404 84 131 1.7 7.8 0.00 0.00 0.00 83 1011.7
20260904012903 85 142 2.6 5.2 0.00 0.00 0.00 83 1011.7
20260904012404 85 119 1.7 4.3 0.00 0.00 0.00 82 1011.6
20260904011904 85 110 1.7 4.3 0.00 0.00 0.00 82 1011.7
20260904010904 85 137 0.0 0.9 0.00 0.00 0.00 80 1011.6
20260904010404 85 137 0.0 1.7 0.00 0.00 0.00 80 1011.6
20260904005404 85 137 1.7 2.6 0.00 0.00 0.00 80 1011.6
20260904004904 85 137 1.7 2.6 0.00 0.00 0.00 79 1011.6
20260904004405 85 149 0.9 4.3 0.00 0.00 0.00 79 1011.5
20260904003904 85 158 0.9 4.3 0.00 0.00 0.00 79 1011.6
20260904003403 86 150 1.7 5.2 0.00 0.00 0.00 79 1011.6
20260904002904 86 157 0.9 5.2 0.00 0.00 0.00 79 1011.7
20260904002404 86 154 2.6 5.2 0.00 0.00 0.00 79 1011.7
20260904001904 86 157 2.6 7.0 0.00 0.00 0.00 79 1011.7
20260904001404 86 139 4.3 7.0 0.00 0.00 0.00 79 1011.7
20260904000404 86 163 2.6 5.2 0.00 0.00 0.00 79 1011.7
20260903235905 86 163 2.6 5.2 0.00 0.00 0.00 79 1011.8
20260903235403 86 131 0.9 7.0 0.00 0.00 0.00 79 1011.8
20260903234404 86 132 4.3 8.7 0.00 0.00 0.00 79 1011.8
20260903233904 86 139 1.7 6.1 0.00 0.00 0.00 79 1011.7
20260903233404 86 123 1.7 6.1 0.00 0.00 0.00 78 1011.7
20260903232904 86 121 3.5 7.0 0.00 0.00 0.00 78 1011.6
20260903231905 87 123 2.6 12.2 0.00 0.00 0.00 78 1011.6
20260903231403 87 112 2.6 7.0 0.00 0.00 0.00 78 1011.5
20260903230904 87 133 3.5 8.7 0.00 0.00 0.00 78 1011.5
20260903230404 87 131 4.3 8.7 0.00 0.00 0.00 78 1011.6
20260903225904 87 134 2.6 8.7 0.00 0.00 0.00 78 1011.6
20260903225404 87 132 0.9 8.7 0.00 0.00 0.00 78 1011.7
20260903224904 87 99 2.6 11.3 0.00 0.00 0.00 78 1011.8
20260903224404 87 120 3.5 11.3 0.00 0.00 0.00 78 1011.9
20260903223904 87 123 2.6 11.3 0.00 0.00 0.00 77 1012.0
20260903223404 87 114 4.3 7.8 0.00 0.00 0.00 77 1012.0
20260903222404 87 119 2.6 8.7 0.00 0.00 0.00 76 1011.9
20260903221904 87 129 2.6 8.7 0.00 0.00 0.00 76 1012.0
20260903221405 88 113 1.7 6.1 0.00 0.00 0.00 76 1012.1
20260903220904 87 129 0.9 7.0 0.00 0.00 0.00 76 1012.2
20260903215904 87 129 2.6 7.8 0.00 0.00 0.00 76 1012.0
20260903215405 87 127 2.6 7.8 0.00 0.00 0.00 76 1012.1
20260903214904 88 123 2.6 7.0 0.00 0.00 0.00 76 1012.3